Regional Weather Roundup
Issued by NWS

Home | Current Version | Previous Version | Graphics & Text | Print | Product List | Glossary On
Versions: 1 2 3 4 5 6 7 8 9 10 11 12 13 14 15 16 17 18 19 20 21 22 23 24 25 26 27 28 29 30 31 32 33 34 35 36 37 38 39 40 41 42 43 44 45 46 47 48 49 50
000
ASUS43 KMPX 201401
RWRMN
WEATHER ROUNDUP FOR MINNESOTA
NATIONAL WEATHER SERVICE TWIN CITIES/CHANHASSEN MN
900 AM CDT WED AUG 20 2014


NOTE: "FAIR" INDICATES FEW OR NO CLOUDS BELOW 12,000 FEET WITH NO
SIGNIFICANT WEATHER AND/OR OBSTRUCTIONS TO VISIBILITY. N/A MEANS
CURRENT SKY AND/OR WEATHER CONDITIONS ARE NOT AVAILABLE.

MNZ060>063-068>070-201500-
   Twin Cities Metro

CITY           SKY/WX    TMP DP  RH WIND       PRES   REMARKS
TWIN CITIES    MOSUNNY   70  64  81 E6        29.87R
ST PAUL        SUNNY     69  64  84 E5        29.88R
CRYSTAL        MOSUNNY   71  62  73 CALM      29.87R
BLAINE         CLOUDY    70  66  88 MISG      29.88R
LAKEVILLE      FOG       64  64 100 NE5       29.86F VSB 1/2
EDEN PRAIRIE   SUNNY     71  66  84 NE6       29.85F
SOUTH ST PAUL  SUNNY     69  64  84 E5        29.87F
LAKE ELMO      FAIR      66  63  88 CALM      29.90R
$$
MNZ001>005-007-008-013>017-022>024-027-028-201500-
   Northwest Minnesota

CITY           SKY/WX    TMP DP  RH WIND       PRES   REMARKS
BEMIDJI        MOSUNNY   66  63  90 S8        29.87R
HALLOCK        SUNNY     70  64  83 SE8       29.79S
ROSEAU         SUNNY     70  63  78 SE7       29.84S
WARROAD        SUNNY     70  64  83 S5        29.85S
THIEF RVR FALL SUNNY     66  63  88 SE7       29.82F
CROOKSTON      SUNNY     70  64  83 SE8       29.81S
FOSSTON        SUNNY     66  64  94 SE7       29.84S
DETROIT LAKES  SUNNY     68  63  83 SE8       29.86R
MOORHEAD       SUNNY     72  68  88 SE8       29.81S
PARK RAPIDS    CLOUDY    63  62  97 SE9       29.87S
MAHNOMEN       FAIR      66  63  89 SE7       29.84R
$$
MNZ006-009>011-018-025>026-201500-
   North Central Minnesota

CITY           SKY/WX    TMP DP  RH WIND       PRES   REMARKS
BAUDETTE         N/A     66  62  87 CALM      29.86S
FLAG ISLAND    SUNNY     70  63  78 SE8       29.84S
INTL FALLS     SUNNY     63  61  93 E5        29.89R
WASKISH        SUNNY     64  64 100 CALM      29.86F
BIG FORK       SUNNY     61  61 100 CALM      29.90R
LONGVILLE      SUNNY     63  63 100 CALM      29.87S
GRAND RAPIDS   CLOUDY    61  57  88 CALM      29.89S
CRANE LAKE     FOG       55  55 100 CALM      29.91F VSB 1/4
ORR            CLOUDY    61  57  88 CALM      29.88S FOG
COOK           FOG       55  55 100 CALM      29.91S VSB 1/2
WALKER         FAIR      65  62  90 S5        29.88R
$$
MNZ012-019>021-037-201500-
   Northeast Minnesota

CITY           SKY/WX    TMP DP  RH WIND       PRES   REMARKS
DULUTH         CLOUDY    64  59  83 N3        29.89R
ELY            CLOUDY    63  61  94 CALM      29.90S
HIBBING        CLOUDY    64  60  87 CALM      29.90S
EVELETH        CLOUDY    63  59  88 CALM      29.91R
DULUTH HARBOR  CLOUDY    63  61  94 CALM      29.88S
TWO HARBORS    CLOUDY    63  57  82 CALM      29.87S
SILVER BAY     SUNNY     61  61 100 CALM      29.87R
GRAND MARAIS     N/A     63  60  90 VRB3      29.85S
G MARAIS ARPRT CLOUDY    61  55  82 N5        29.89F
$$
MNZ029>031-032-039>041-046>048-054>057-064-201500-
   West Central Minnesota

CITY           SKY/WX    TMP DP  RH WIND       PRES   REMARKS
FERGUS FALLS   SUNNY     72  63  73 SE10      29.82F
WHEATON        SUNNY     66  64  94 SE10      29.81S
MORRIS         SUNNY     70  66  88 E8        29.81F
ALEXANDRIA     SUNNY     68  64  87 SE8       29.87S
ELBOW LAKE     FAIR      70  63  80 SE9       29.83S
WADENA         CLOUDY    63  63 100 SE5       29.87R FOG
GLENWOOD       MOSUNNY   68  64  88 SE7       29.86F
APPLETON       MOSUNNY   70  64  83 SE8       29.80F
BENSON         PTSUNNY   70  64  83 SE6       29.82F
ORTONVILLE     MOSUNNY   70  64  83 SE7       29.79F
MADISON        PTSUNNY   72  66  83 E6        29.80F
WILLMAR        FAIR      70  64  83 E7        29.85F
$$
MNZ033>034-036-042>043-049>051-058-059-201500-
   Central Minnesota

CITY           SKY/WX    TMP DP  RH WIND       PRES   REMARKS
ST CLOUD       PTSUNNY   67  63  87 S6        29.89R
SAUK CENTRE    CLOUDY    64  64  99 SE6       29.88S FOG
PAYNESVILLE    MOSUNNY   67  64  89 NE6       29.86F
AITKIN         HAZE      63  57  82 CALM      29.87R VSB 1
PINE RIVER     PTSUNNY   64  64 100 SE6       29.91S
BRAINERD       SUNNY     65  62  90 S6        29.89R
STAPLES        CLOUDY    63  63 100 S7        29.88R FOG
LONG PRAIRIE   CLOUDY    63  63 100 E3        29.88F
LITTLE FALLS   CLOUDY    63  61  94 SE3       29.89R
LITCHFIELD     MOSUNNY   72  70  94 E6        29.86F
BUFFALO        MOSUNNY   67  63  86 CALM      29.89S
MAPLE LAKE     MOSUNNY   67  67  99 CALM      29.89S
$$
MNZ037-044-045-052-053-201500-
   East Central Minnesota

CITY           SKY/WX    TMP DP  RH WIND       PRES   REMARKS
PRINCETON      SUNNY     66  64  94 SE2       29.89R
MORA           CLOUDY    59  59 100 CALM      29.91R
CAMBRIDGE      SUNNY     70  59  68 SE3       29.89R
RUSH CITY      CLOUDY    61  60  97 CALM      29.90R
MOOSE LAKE     CLOUDY    61  59  94 CALM      29.87S
HINCKLEY       CLOUDY    61  61 100 E3        29.89R FOG
CLOQUET        CLOUDY    63  61  94 CALM      29.89R
MCGREGOR       PTSUNNY   61  59  94 NE5       29.89S
$$
MNZ071>073-080-081-089-090-097-098-201500-
   Southwest Minnesota

CITY           SKY/WX    TMP DP  RH WIND       PRES   REMARKS
MONTEVIDEO     PTSUNNY   70  68  94 S6        29.82F
GRANITE FALLS  CLOUDY    68  65  90 E5        29.83F
CANBY          CLOUDY    67  65  93 E6        29.80F
MARSHALL       CLOUDY    68  63  83 SE7       29.81S
REDWOOD FALLS  CLOUDY    70  65  84 E5        29.82F
OLIVIA         CLOUDY    72  63  73 E5        29.83F
PIPESTONE      CLOUDY    66  63  88 S9        29.79F
WINDOM         CLOUDY    68  64  88 CALM      29.85S
WORTHINGTON    CLOUDY    64   9  11 E9        29.83F
JACKSON        CLOUDY    68  63  83 SE3       29.85S
TRACY          CLOUDY    71  65  82 CALM      29.83S
SLAYTON        LGT RAIN  66  64  95 CALM      29.81F
$$
MNZ065>067-074>077-082>085-091>093-201500-
   South Central Minnesota

CITY           SKY/WX    TMP DP  RH WIND       PRES   REMARKS
MANKATO        CLOUDY    68  64  88 S6        29.86S
NEW ULM          N/A     70  68  94 S5        29.85F
ST JAMES       CLOUDY    72  66  83 E3        29.85F
FAIRMONT       CLOUDY    66  45  45 MISG      29.86F
GLENCOE        PTSUNNY   68  66  92 E6        29.84F
FARIBAULT      PTSUNNY   72  64  78 NE3       29.86S
OWATONNA       PTSUNNY   70  66  88 CALM      29.86S
WASECA         CLOUDY    64  61  88 S6        29.89R FOG
ALBERT LEA     CLOUDY    70  68  94 CALM      29.88R
$$
MNZ078>079-086>088-094>096-201500-
   Southeast Minnesota

CITY           SKY/WX    TMP DP  RH WIND       PRES   REMARKS
ROCHESTER      MOSUNNY   70  64  81 NE7       29.88S
RED WING       CLOUDY    66  63  88 E5        29.87S
STANTON        MOSUNNY   68  66  93 NE6       29.84F
DODGE CENTER   MOSUNNY   68  66  94 NE6       29.86S
WINONA         CLOUDY    63  63 100 CALM      29.87S FOG
AUSTIN         CLOUDY    66  66 100 S3        29.89R
PRESTON        PTSUNNY   68  68 100 S7        29.90R
$$
ABBREVIATIONS USED IN REMARKS
   TC - TEMPERATURES IN CELSIUS
  WCI - WIND CHILL INDEX
   HX - HEAT INDEX
  VSB - VISIBILITY
$$



USA.gov is the U.S. government's official web portal to all federal, state and local government web resources and services.